Location: Hains Lake
(37.8540°N, 99.8578°W)
Time: 14:24:53
(UTC+00:00)

NOSS 3-2 (C) - Pass Details

Date: 11 December 2019
Orbit: 816 x 1396 km, 63.4° (Epoch: 19 January)

Event Time Altitude Azimuth Distance (km) Brightness Sun altitude
Rises 12:55:59 0° 196° (SSW) 3,341 6.4 -9.5°
Reaches altitude 10° 12:58:23 10° 192° (SSW) 2,437 5.7 -9.1°
Maximum altitude 13:03:48 53° 116° (ESE) 1,076 4.3 -8.1°
Drops below altitude 10° 13:09:47 10° 41° (NE) 2,703 6.1 -7.0°
Sets 13:12:34 0° 37° (NE) 3,739 6.7 -6.5°
